Time,TemperatureF,DewpointF,PressureIn,WindDirection,WindDirectionDegrees,WindSpeedMPH,WindSpeedGustMPH,Humidity,HourlyPrecipIn,Conditions,Clouds,dailyrainin,SoftwareType,DateUTC
2013-12-08 00:02:00,35.5,7.9,17.72,East,89,3.1,3.1,31,0.00,,---,0.00,VWS V14.00,2013-12-08 06:02:00,
2013-12-08 00:03:00,35.5,7.9,17.72,East,89,3.1,3.1,31,0.00,,---,0.00,VWS V14.00,2013-12-08 06:03:00,
2013-12-08 00:05:00,35.3,7.7,17.72,East,89,3.1,3.1,31,0.00,,---,0.00,VWS V14.00,2013-12-08 06:05:00,
2013-12-08 00:11:00,35.3,7.7,17.72,East,89,3.1,3.1,31,0.00,,---,0.00,VWS V14.00,2013-12-08 06:11:00,
2013-12-08 00:14:00,35.3,7.7,17.72,SE,140,2.7,3.1,31,0.00,,---,0.00,VWS V14.00,2013-12-08 06:14:00,
2013-12-08 00:20:00,35.1,7.5,17.72,SE,136,4.0,4.0,31,0.00,,---,0.00,VWS V14.00,2013-12-08 06:20:00,
2013-12-08 00:23:00,35.1,7.5,17.72,South,187,0.0,4.0,31,0.00,,---,0.00,VWS V14.00,2013-12-08 06:23:00,
2013-12-08 00:26:00,35.1,7.5,17.72,South,187,0.0,4.0,31,0.00,,---,0.00,VWS V14.00,2013-12-08 06:26:00,
2013-12-08 00:29:00,34.9,6.7,17.72,South,187,0.0,4.0,30,0.00,,---,0.00,VWS V14.00,2013-12-08 06:29:00,
2013-12-08 00:33:00,34.9,6.7,17.72,South,187,0.0,4.0,30,0.00,,---,0.00,VWS V14.00,2013-12-08 06:33:00,
2013-12-08 00:38:00,34.9,6.7,17.72,ESE,120,2.2,2.2,30,0.00,,---,0.00,VWS V14.00,2013-12-08 06:38:00,
2013-12-08 00:44:00,34.9,6.7,17.72,ESE,120,2.2,2.2,30,0.00,,---,0.00,VWS V14.00,2013-12-08 06:44:00,
2013-12-08 00:47:00,34.6,6.3,17.72,ESE,120,2.2,2.2,30,0.00,,---,0.00,VWS V14.00,2013-12-08 06:47:00,
2013-12-08 00:48:00,34.6,6.3,17.72,ESE,120,2.2,2.2,30,0.00,,---,0.00,VWS V14.00,2013-12-08 06:48:00,
2013-12-08 00:50:00,34.6,6.3,17.72,ESE,120,2.2,2.2,30,0.00,,---,0.00,VWS V14.00,2013-12-08 06:50:00,
2013-12-08 00:53:00,34.6,6.3,17.72,ESE,120,2.2,2.2,30,0.00,,---,0.00,VWS V14.00,2013-12-08 06:53:00,
2013-12-08 00:56:00,34.6,6.3,17.72,SSE,167,4.0,4.0,30,0.00,,---,0.00,VWS V14.00,2013-12-08 06:56:00,
2013-12-08 00:59:00,34.6,6.3,17.72,SSE,167,4.0,4.0,30,0.00,,---,0.00,VWS V14.00,2013-12-08 06:59:00,
2013-12-08 01:02:00,34.4,6.2,17.72,SSE,167,4.0,4.0,30,0.00,,---,0.00,VWS V14.00,2013-12-08 07:02:00,
2013-12-08 01:05:00,34.4,6.2,17.72,SSE,167,4.0,4.0,30,0.00,,---,0.00,VWS V14.00,2013-12-08 07:05:00,
2013-12-08 01:08:00,34.4,6.2,17.72,SSE,167,4.0,4.0,30,0.00,,---,0.00,VWS V14.00,2013-12-08 07:08:00,
2013-12-08 01:11:00,34.4,6.2,17.72,NE,49,3.1,4.0,30,0.00,,---,0.00,VWS V14.00,2013-12-08 07:11:00,
2013-12-08 01:14:00,34.4,6.2,17.72,East,99,4.9,4.9,30,0.00,,---,0.00,VWS V14.00,2013-12-08 07:14:00,
2013-12-08 01:17:00,34.2,6.0,17.72,East,99,4.9,4.9,30,0.00,,---,0.00,VWS V14.00,2013-12-08 07:17:00,
2013-12-08 01:20:00,34.0,5.9,17.72,East,99,4.9,4.9,30,0.00,,---,0.00,VWS V14.00,2013-12-08 07:20:00,
2013-12-08 01:23:00,34.0,5.9,17.72,ENE,66,3.1,4.9,30,0.00,,---,0.00,VWS V14.00,2013-12-08 07:23:00,
2013-12-08 01:29:00,33.9,5.7,17.72,ENE,66,3.1,4.9,30,0.00,,---,0.00,VWS V14.00,2013-12-08 07:29:00,
2013-12-08 01:32:00,33.9,5.7,17.72,ENE,66,3.1,4.9,30,0.00,,---,0.00,VWS V14.00,2013-12-08 07:32:00,
2013-12-08 01:33:00,33.9,5.7,17.72,ENE,66,3.1,4.9,30,0.00,,---,0.00,VWS V14.00,2013-12-08 07:33:00,
2013-12-08 01:35:00,33.9,5.7,17.72,SSE,157,6.3,6.3,30,0.00,,---,0.00,VWS V14.00,2013-12-08 07:35:00,
2013-12-08 01:38:00,33.9,5.7,17.72,SSE,157,6.3,6.3,30,0.00,,---,0.00,VWS V14.00,2013-12-08 07:38:00,
2013-12-08 01:41:00,33.9,5.7,17.72,SSE,157,6.3,6.3,30,0.00,,---,0.00,VWS V14.00,2013-12-08 07:41:00,
2013-12-08 01:44:00,33.9,5.7,17.72,East,92,4.9,6.3,30,0.00,,---,0.00,VWS V14.00,2013-12-08 07:44:00,
2013-12-08 01:47:00,33.3,5.2,17.72,SE,142,0.0,6.3,30,0.00,,---,0.00,VWS V14.00,2013-12-08 07:47:00,
2013-12-08 01:50:00,33.3,5.2,17.72,SE,142,0.0,0.0,30,0.00,,---,0.00,VWS V14.00,2013-12-08 07:50:00,
2013-12-08 01:53:00,33.3,5.2,17.72,SE,142,0.0,0.0,30,0.00,,---,0.00,VWS V14.00,2013-12-08 07:53:00,
2013-12-08 01:56:00,33.3,5.2,17.72,SE,142,0.0,0.0,30,0.00,,---,0.00,VWS V14.00,2013-12-08 07:56:00,
2013-12-08 01:59:00,33.1,5.1,17.72,East,87,4.0,4.0,30,0.00,,---,0.00,VWS V14.00,2013-12-08 07:59:00,
2013-12-08 02:02:00,33.1,5.1,17.72,East,87,4.0,4.0,30,0.00,,---,0.00,VWS V14.00,2013-12-08 08:02:00,
2013-12-08 02:05:00,33.1,5.1,17.72,ESE,108,2.2,2.2,30,0.00,,---,0.00,VWS V14.00,2013-12-08 08:05:00,
2013-12-08 02:08:00,33.1,5.1,17.72,ESE,108,2.2,2.2,30,0.00,,---,0.00,VWS V14.00,2013-12-08 08:08:00,
2013-12-08 02:11:00,33.0,4.9,17.72,ESE,108,2.2,2.2,30,0.00,,---,0.00,VWS V14.00,2013-12-08 08:11:00,
2013-12-08 02:14:00,33.0,4.9,17.72,ESE,108,2.2,2.2,30,0.00,,---,0.00,VWS V14.00,2013-12-08 08:14:00,
2013-12-08 02:17:00,33.0,4.9,17.72,ESE,108,2.2,2.2,30,0.00,,---,0.00,VWS V14.00,2013-12-08 08:17:00,
2013-12-08 02:18:00,33.0,4.9,17.72,ESE,108,2.2,2.2,30,0.00,,---,0.00,VWS V14.00,2013-12-08 08:18:00,
2013-12-08 02:20:00,33.0,4.9,17.72,ESE,108,2.2,2.2,30,0.00,,---,0.00,VWS V14.00,2013-12-08 08:20:00,
2013-12-08 02:27:00,33.0,4.9,17.72,ESE,108,2.2,2.2,30,0.00,,---,0.00,VWS V14.00,2013-12-08 08:27:00,
2013-12-08 02:30:00,33.0,4.9,17.72,ESE,108,2.2,2.2,30,0.00,,---,0.00,VWS V14.00,2013-12-08 08:30:00,
2013-12-08 02:33:00,33.0,4.9,17.72,ESE,108,2.2,2.2,30,0.00,,---,0.00,VWS V14.00,2013-12-08 08:33:00,
2013-12-08 02:39:00,33.0,4.9,17.72,North,10,2.2,2.2,30,0.00,,---,0.00,VWS V14.00,2013-12-08 08:39:00,
2013-12-08 02:45:00,33.0,4.9,17.72,West,265,4.0,4.0,30,0.00,,---,0.00,VWS V14.00,2013-12-08 08:45:00,
2013-12-08 02:51:00,32.8,4.8,17.72,West,265,4.0,4.0,30,0.00,,---,0.00,VWS V14.00,2013-12-08 08:51:00,
2013-12-08 02:54:00,32.8,4.8,17.72,West,265,4.0,4.0,30,0.00,,---,0.00,VWS V14.00,2013-12-08 08:54:00,
2013-12-08 02:57:00,32.8,4.8,17.72,West,265,4.0,4.0,30,0.00,,---,0.00,VWS V14.00,2013-12-08 08:57:00,
2013-12-08 03:00:00,32.8,4.8,17.72,South,190,0.0,4.0,30,0.00,,---,0.00,VWS V14.00,2013-12-08 09:00:00,
2013-12-08 03:03:00,32.8,4.8,17.72,South,190,0.0,4.0,30,0.00,,---,0.00,VWS V14.00,2013-12-08 09:03:00,
2013-12-08 03:06:00,32.8,4.8,17.72,South,190,0.0,0.0,30,0.00,,---,0.00,VWS V14.00,2013-12-08 09:06:00,
2013-12-08 03:09:00,32.8,4.8,17.72,ENE,73,3.1,3.1,30,0.00,,---,0.00,VWS V14.00,2013-12-08 09:09:00,
2013-12-08 03:12:00,32.8,4.8,17.72,ENE,70,3.6,3.6,30,0.00,,---,0.00,VWS V14.00,2013-12-08 09:12:00,
2013-12-08 03:15:00,32.8,4.8,17.72,East,100,4.9,4.9,30,0.00,,---,0.00,VWS V14.00,2013-12-08 09:15:00,
2013-12-08 03:21:00,32.8,5.5,17.72,East,100,4.9,4.9,31,0.00,,---,0.00,VWS V14.00,2013-12-08 09:21:00,
2013-12-08 03:24:00,32.8,5.5,17.72,East,100,4.9,4.9,31,0.00,,---,0.00,VWS V14.00,2013-12-08 09:24:00,
2013-12-08 03:27:00,32.8,5.5,17.72,East,100,4.9,4.9,31,0.00,,---,0.00,VWS V14.00,2013-12-08 09:27:00,
2013-12-08 03:30:00,32.8,5.5,17.72,East,100,4.9,4.9,31,0.00,,---,0.00,VWS V14.00,2013-12-08 09:30:00,
2013-12-08 03:33:00,32.8,5.5,17.72,ENE,60,0.0,4.9,31,0.00,,---,0.00,VWS V14.00,2013-12-08 09:33:00,
2013-12-08 03:39:00,32.8,5.5,17.72,ENE,60,0.0,0.0,31,0.00,,---,0.00,VWS V14.00,2013-12-08 09:39:00,
2013-12-08 03:45:00,32.8,5.5,17.72,East,95,3.6,3.6,31,0.00,,---,0.00,VWS V14.00,2013-12-08 09:45:00,
2013-12-08 03:48:00,32.8,5.5,17.72,SSE,153,3.6,3.6,31,0.00,,---,0.00,VWS V14.00,2013-12-08 09:48:00,
2013-12-08 03:51:00,32.6,5.3,17.72,SSE,153,3.6,3.6,31,0.00,,---,0.00,VWS V14.00,2013-12-08 09:51:00,
2013-12-08 03:57:00,32.6,5.3,17.72,SSE,148,2.2,3.6,31,0.00,,---,0.00,VWS V14.00,2013-12-08 09:57:00,
2013-12-08 04:00:00,32.6,5.3,17.72,SSE,148,2.2,3.6,31,0.00,,---,0.00,VWS V14.00,2013-12-08 10:00:00,
2013-12-08 04:03:00,32.6,5.3,17.72,SSE,148,2.2,3.6,31,0.00,,---,0.00,VWS V14.00,2013-12-08 10:03:00,
2013-12-08 04:06:00,32.6,5.3,17.72,North,8,0.0,0.0,31,0.00,,---,0.00,VWS V14.00,2013-12-08 10:06:00,
2013-12-08 04:09:00,32.6,5.3,17.72,North,8,0.0,0.0,31,0.00,,---,0.00,VWS V14.00,2013-12-08 10:09:00,
2013-12-08 04:12:00,32.4,5.2,17.72,North,8,0.0,0.0,31,0.00,,---,0.00,VWS V14.00,2013-12-08 10:12:00,
2013-12-08 04:15:00,32.4,5.2,17.72,SSE,149,2.7,2.7,31,0.00,,---,0.00,VWS V14.00,2013-12-08 10:15:00,
2013-12-08 04:18:00,32.4,5.2,17.72,ESE,104,2.7,2.7,31,0.00,,---,0.00,VWS V14.00,2013-12-08 10:18:00,
2013-12-08 04:24:00,32.4,5.2,17.72,SE,140,3.1,3.1,31,0.00,,---,0.00,VWS V14.00,2013-12-08 10:24:00,
2013-12-08 04:27:00,32.4,5.2,17.72,East,100,3.6,3.6,31,0.00,,---,0.00,VWS V14.00,2013-12-08 10:27:00,
2013-12-08 04:30:00,32.4,5.2,17.72,East,100,3.6,3.6,31,0.00,,---,0.00,VWS V14.00,2013-12-08 10:30:00,
2013-12-08 04:33:00,32.4,5.2,17.72,East,100,3.6,3.6,31,0.00,,---,0.00,VWS V14.00,2013-12-08 10:33:00,
2013-12-08 04:36:00,32.4,5.9,17.72,East,100,3.6,3.6,32,0.00,,---,0.00,VWS V14.00,2013-12-08 10:36:00,
2013-12-08 04:39:00,32.4,5.9,17.72,ESE,113,5.4,5.4,32,0.00,,---,0.00,VWS V14.00,2013-12-08 10:39:00,
2013-12-08 04:42:00,32.4,5.9,17.72,SSE,155,5.8,5.8,32,0.00,,---,0.00,VWS V14.00,2013-12-08 10:42:00,
2013-12-08 04:45:00,32.4,5.9,17.72,SSE,155,5.8,5.8,32,0.00,,---,0.00,VWS V14.00,2013-12-08 10:45:00,
2013-12-08 04:51:00,32.1,5.6,17.72,SSE,155,5.8,5.8,32,0.00,,---,0.00,VWS V14.00,2013-12-08 10:51:00,
2013-12-08 04:54:00,32.1,5.6,17.72,SSE,156,5.8,5.8,32,0.00,,---,0.00,VWS V14.00,2013-12-08 10:54:00,
2013-12-08 04:57:00,32.1,5.6,17.72,SSE,157,5.8,6.3,32,0.00,,---,0.00,VWS V14.00,2013-12-08 10:57:00,
2013-12-08 05:00:00,32.1,5.6,17.72,NNE,12,2.7,6.3,32,0.00,,---,0.00,VWS V14.00,2013-12-08 11:00:00,
2013-12-08 05:03:00,32.1,5.6,17.72,NNE,12,2.7,6.3,32,0.00,,---,0.00,VWS V14.00,2013-12-08 11:03:00,
2013-12-08 05:06:00,32.1,5.6,17.72,East,101,3.1,3.1,32,0.00,,---,0.00,VWS V14.00,2013-12-08 11:06:00,
2013-12-08 05:09:00,31.9,6.1,17.72,East,101,3.1,3.1,33,0.00,,---,0.00,VWS V14.00,2013-12-08 11:09:00,
2013-12-08 05:12:00,31.9,6.1,17.72,East,101,3.1,3.1,33,0.00,,---,0.00,VWS V14.00,2013-12-08 11:12:00,
2013-12-08 05:18:00,31.9,6.1,17.72,ESE,117,2.7,3.1,33,0.00,,---,0.00,VWS V14.00,2013-12-08 11:18:00,
2013-12-08 05:21:00,31.7,5.9,17.72,East,87,3.6,3.6,33,0.00,,---,0.00,VWS V14.00,2013-12-08 11:21:00,
2013-12-08 05:24:00,31.7,5.9,17.72,East,87,3.6,3.6,33,0.00,,---,0.00,VWS V14.00,2013-12-08 11:24:00,
2013-12-08 05:27:00,31.7,5.9,17.72,ESE,123,2.2,3.6,33,0.00,,---,0.00,VWS V14.00,2013-12-08 11:27:00,
2013-12-08 05:30:00,31.7,5.9,17.72,East,95,3.6,3.6,33,0.00,,---,0.00,VWS V14.00,2013-12-08 11:30:00,
2013-12-08 05:33:00,31.7,5.9,17.72,East,95,3.6,3.6,33,0.00,,---,0.00,VWS V14.00,2013-12-08 11:33:00,
2013-12-08 05:36:00,31.5,5.7,17.72,ESE,105,0.0,3.6,33,0.00,,---,0.00,VWS V14.00,2013-12-08 11:36:00,
2013-12-08 05:39:00,31.5,5.7,17.72,ESE,105,0.0,3.6,33,0.00,,---,0.00,VWS V14.00,2013-12-08 11:39:00,
2013-12-08 05:42:00,31.5,5.7,17.72,SE,136,0.0,3.6,33,0.00,,---,0.00,VWS V14.00,2013-12-08 11:42:00,
2013-12-08 05:45:00,31.5,5.7,17.72,SE,136,0.0,3.6,33,0.00,,---,0.00,VWS V14.00,2013-12-08 11:45:00,
2013-12-08 05:48:00,31.5,5.7,17.72,ESE,118,2.7,3.6,33,0.00,,---,0.00,VWS V14.00,2013-12-08 11:48:00,
2013-12-08 05:54:00,31.3,5.6,17.72,SE,127,2.2,2.7,33,0.00,,---,0.00,VWS V14.00,2013-12-08 11:54:00,
2013-12-08 05:57:00,31.3,5.6,17.72,South,171,2.7,2.7,33,0.00,,---,0.00,VWS V14.00,2013-12-08 11:57:00,
2013-12-08 06:03:00,31.3,5.6,17.72,ESE,111,2.7,2.7,33,0.00,,---,0.00,VWS V14.00,2013-12-08 12:03:00,
2013-12-08 06:06:00,31.5,5.7,17.72,SE,130,2.7,2.7,33,0.00,,---,0.00,VWS V14.00,2013-12-08 12:06:00,
2013-12-08 06:09:00,31.5,5.7,17.72,SE,136,2.7,2.7,33,0.00,,---,0.00,VWS V14.00,2013-12-08 12:09:00,
2013-12-08 06:12:00,31.5,5.7,17.72,SE,136,2.7,2.7,33,0.00,,---,0.00,VWS V14.00,2013-12-08 12:12:00,
2013-12-08 06:15:00,31.5,5.7,17.72,SE,129,2.2,2.7,33,0.00,,---,0.00,VWS V14.00,2013-12-08 12:15:00,
2013-12-08 06:18:00,31.5,6.4,17.72,ESE,123,2.7,2.7,34,0.00,,---,0.00,VWS V14.00,2013-12-08 12:18:00,
2013-12-08 06:24:00,31.5,6.4,17.72,NE,56,0.0,2.7,34,0.00,,---,0.00,VWS V14.00,2013-12-08 12:24:00,
2013-12-08 06:27:00,31.5,6.4,17.72,East,89,2.2,4.0,34,0.00,,---,0.00,VWS V14.00,2013-12-08 12:27:00,
2013-12-08 06:30:00,31.5,6.4,17.72,East,89,2.2,4.0,34,0.00,,---,0.00,VWS V14.00,2013-12-08 12:30:00,
2013-12-08 06:33:00,31.5,6.4,17.72,East,89,2.2,4.0,34,0.00,,---,0.00,VWS V14.00,2013-12-08 12:33:00,
2013-12-08 06:36:00,31.5,6.4,17.72,East,100,2.7,2.7,34,0.00,,---,0.00,VWS V14.00,2013-12-08 12:36:00,
2013-12-08 06:39:00,31.5,6.4,17.72,NNE,27,2.7,2.7,34,0.00,,---,0.00,VWS V14.00,2013-12-08 12:39:00,
2013-12-08 06:45:00,31.5,6.4,17.72,SSE,148,2.7,2.7,34,0.00,,---,0.00,VWS V14.00,2013-12-08 12:45:00,
2013-12-08 06:48:00,31.5,6.4,17.72,SE,126,2.7,2.7,34,0.00,,---,0.00,VWS V14.00,2013-12-08 12:48:00,
2013-12-08 06:51:00,31.5,6.4,17.72,SE,126,2.7,2.7,34,0.00,,---,0.00,VWS V14.00,2013-12-08 12:51:00,
2013-12-08 06:54:00,31.3,6.2,17.72,SSE,149,3.1,3.1,34,0.00,,---,0.00,VWS V14.00,2013-12-08 12:54:00,
2013-12-08 06:57:00,31.3,6.2,17.72,ENE,60,2.7,3.1,34,0.00,,---,0.00,VWS V14.00,2013-12-08 12:57:00,
2013-12-08 07:03:00,31.3,6.2,17.72,SE,130,2.7,3.1,34,0.00,,---,0.00,VWS V14.00,2013-12-08 13:03:00,
2013-12-08 07:06:00,31.3,6.2,17.72,SE,130,2.7,2.7,34,0.00,,---,0.00,VWS V14.00,2013-12-08 13:06:00,
2013-12-08 07:09:00,31.3,6.2,17.72,ESE,107,3.6,3.6,34,0.00,,---,0.00,VWS V14.00,2013-12-08 13:09:00,
2013-12-08 07:12:00,31.3,6.2,17.72,ESE,107,3.6,3.6,34,0.00,,---,0.00,VWS V14.00,2013-12-08 13:12:00,
2013-12-08 07:15:00,31.3,6.2,17.72,SSE,156,3.6,3.6,34,0.00,,---,0.00,VWS V14.00,2013-12-08 13:15:00,
2013-12-08 07:18:00,31.3,6.9,17.72,South,188,2.7,3.6,35,0.00,,---,0.00,VWS V14.00,2013-12-08 13:18:00,
2013-12-08 07:19:00,31.3,6.9,17.72,South,188,2.7,2.7,35,0.00,,---,0.00,VWS V14.00,2013-12-08 13:19:00,
2013-12-08 07:22:00,31.3,6.9,17.72,South,188,2.7,2.7,35,0.00,,---,0.00,VWS V14.00,2013-12-08 13:22:00,
2013-12-08 07:28:00,31.3,6.9,17.72,ESE,114,3.6,3.6,35,0.00,,---,0.00,VWS V14.00,2013-12-08 13:28:00,
2013-12-08 07:31:00,31.3,6.9,17.72,SSE,164,2.7,3.6,35,0.00,,---,0.00,VWS V14.00,2013-12-08 13:31:00,
2013-12-08 07:33:00,31.3,6.9,17.72,SSE,164,2.7,3.6,35,0.00,,---,0.00,VWS V14.00,2013-12-08 13:33:00,
2013-12-08 07:34:00,31.3,6.9,17.72,SSE,164,2.7,2.7,35,0.00,,---,0.00,VWS V14.00,2013-12-08 13:34:00,
2013-12-08 07:37:00,31.3,6.9,17.72,ESE,106,3.1,3.1,35,0.00,,---,0.00,VWS V14.00,2013-12-08 13:37:00,
2013-12-08 07:40:00,31.3,6.9,17.72,ESE,106,3.1,3.1,35,0.00,,---,0.00,VWS V14.00,2013-12-08 13:40:00,
2013-12-08 07:43:00,31.3,6.9,17.72,East,81,3.1,3.1,35,0.00,,---,0.00,VWS V14.00,2013-12-08 13:43:00,
2013-12-08 07:46:00,31.3,6.9,17.72,East,81,3.1,3.1,35,0.00,,---,0.00,VWS V14.00,2013-12-08 13:46:00,
2013-12-08 07:48:00,31.3,6.9,17.72,SE,126,2.7,4.0,35,0.00,,---,0.00,VWS V14.00,2013-12-08 13:48:00,
2013-12-08 07:49:00,31.3,6.9,17.72,SE,126,2.7,2.7,35,0.00,,---,0.00,VWS V14.00,2013-12-08 13:49:00,
2013-12-08 07:52:00,31.3,6.9,17.72,SE,126,2.7,2.7,35,0.00,,---,0.00,VWS V14.00,2013-12-08 13:52:00,
2013-12-08 07:55:00,31.3,6.9,17.72,SE,126,2.7,2.7,35,0.00,,---,0.00,VWS V14.00,2013-12-08 13:55:00,
2013-12-08 07:58:00,31.3,6.9,17.72,SE,126,2.7,2.7,35,0.00,,---,0.00,VWS V14.00,2013-12-08 13:58:00,
2013-12-08 08:01:00,31.3,6.9,17.72,SSE,151,3.1,3.1,35,0.00,,---,0.00,VWS V14.00,2013-12-08 14:01:00,
2013-12-08 08:03:00,31.3,6.9,17.72,SSE,151,3.1,3.1,35,0.00,,---,0.00,VWS V14.00,2013-12-08 14:03:00,
2013-12-08 08:04:00,31.3,6.9,17.72,SSE,151,3.1,3.1,35,0.00,,---,0.00,VWS V14.00,2013-12-08 14:04:00,
2013-12-08 08:07:00,31.3,6.9,17.72,SSE,151,3.1,3.1,35,0.00,,---,0.00,VWS V14.00,2013-12-08 14:07:00,
2013-12-08 08:10:00,31.3,6.9,17.72,South,170,2.7,3.1,35,0.00,,---,0.00,VWS V14.00,2013-12-08 14:10:00,
2013-12-08 08:13:00,31.3,6.9,17.72,South,171,5.8,5.8,35,0.00,,---,0.00,VWS V14.00,2013-12-08 14:13:00,
2013-12-08 08:16:00,31.2,7.3,17.72,SSE,166,4.0,5.8,36,0.00,,---,0.00,VWS V14.00,2013-12-08 14:16:00,
2013-12-08 08:18:00,31.2,7.3,17.72,SSE,166,4.0,5.8,36,0.00,,---,0.00,VWS V14.00,2013-12-08 14:18:00,
2013-12-08 08:19:00,31.2,7.3,17.72,SSE,166,4.0,4.0,36,0.00,,---,0.00,VWS V14.00,2013-12-08 14:19:00,
2013-12-08 08:25:00,31.2,7.9,17.72,South,169,4.0,4.0,37,0.00,,---,0.00,VWS V14.00,2013-12-08 14:25:00,
2013-12-08 08:28:00,31.2,7.9,17.72,South,169,4.0,4.0,37,0.00,,---,0.00,VWS V14.00,2013-12-08 14:28:00,
2013-12-08 08:31:00,31.2,7.9,17.72,South,187,5.4,5.4,37,0.00,,---,0.00,VWS V14.00,2013-12-08 14:31:00,
2013-12-08 08:33:00,31.2,7.9,17.72,South,187,5.4,5.4,37,0.00,,---,0.00,VWS V14.00,2013-12-08 14:33:00,
2013-12-08 08:40:00,31.2,7.9,17.72,SSW,210,5.8,5.8,37,0.00,,---,0.00,VWS V14.00,2013-12-08 14:40:00,
2013-12-08 08:46:00,31.2,8.5,17.72,SE,139,2.7,5.8,38,0.00,,---,0.00,VWS V14.00,2013-12-08 14:46:00,
2013-12-08 08:48:00,31.2,8.5,17.72,SSE,167,4.0,5.8,38,0.00,,---,0.00,VWS V14.00,2013-12-08 14:48:00,
2013-12-08 08:52:00,31.2,8.5,17.72,SSE,160,3.1,4.0,38,0.00,,---,0.00,VWS V14.00,2013-12-08 14:52:00,
2013-12-08 08:55:00,31.2,8.5,17.72,South,171,4.0,4.0,38,0.00,,---,0.00,VWS V14.00,2013-12-08 14:55:00,
2013-12-08 08:58:00,31.2,8.5,17.72,SSE,153,2.7,4.0,38,0.00,,---,0.00,VWS V14.00,2013-12-08 14:58:00,
2013-12-08 09:01:00,31.2,8.5,17.72,SSE,153,2.7,4.0,38,0.00,,---,0.00,VWS V14.00,2013-12-08 15:01:00,
2013-12-08 09:03:00,31.2,8.5,17.72,SSE,153,2.7,4.0,38,0.00,,---,0.00,VWS V14.00,2013-12-08 15:03:00,
2013-12-08 09:07:00,31.2,8.5,17.72,SSE,153,2.7,2.7,38,0.00,,---,0.00,VWS V14.00,2013-12-08 15:07:00,
2013-12-08 09:10:00,31.2,8.5,17.72,SSE,167,2.2,3.6,38,0.00,,---,0.00,VWS V14.00,2013-12-08 15:10:00,
2013-12-08 09:13:00,31.2,8.5,17.72,SSE,167,2.2,3.6,38,0.00,,---,0.00,VWS V14.00,2013-12-08 15:13:00,
2013-12-08 09:16:00,31.2,8.5,17.72,South,176,3.6,3.6,38,0.00,,---,0.00,VWS V14.00,2013-12-08 15:16:00,
2013-12-08 09:18:00,31.2,8.5,17.72,South,176,3.6,3.6,38,0.00,,---,0.00,VWS V14.00,2013-12-08 15:18:00,
2013-12-08 09:19:00,31.2,8.5,17.72,SSE,165,2.7,3.6,38,0.00,,---,0.00,VWS V14.00,2013-12-08 15:19:00,
2013-12-08 09:22:00,31.3,9.8,17.72,SSE,165,2.7,3.6,40,0.00,,---,0.00,VWS V14.00,2013-12-08 15:22:00,
2013-12-08 09:25:00,31.3,9.8,17.72,SSE,152,3.6,3.6,40,0.00,,---,0.00,VWS V14.00,2013-12-08 15:25:00,
2013-12-08 09:28:00,31.5,10.0,17.72,SSE,152,3.6,3.6,40,0.00,,---,0.00,VWS V14.00,2013-12-08 15:28:00,
2013-12-08 09:31:00,31.5,10.0,17.72,SE,138,3.1,3.6,40,0.00,,---,0.00,VWS V14.00,2013-12-08 15:31:00,
2013-12-08 09:34:00,31.5,10.0,17.72,East,96,3.1,3.1,40,0.00,,---,0.00,VWS V14.00,2013-12-08 15:34:00,
2013-12-08 09:37:00,31.5,10.0,17.72,SSE,155,4.5,4.5,40,0.00,,---,0.00,VWS V14.00,2013-12-08 15:37:00,
2013-12-08 09:40:00,31.5,10.0,17.72,SSE,155,4.5,4.5,40,0.00,,---,0.00,VWS V14.00,2013-12-08 15:40:00,
2013-12-08 09:43:00,31.5,10.0,17.72,South,179,6.3,6.3,40,0.00,,---,0.00,VWS V14.00,2013-12-08 15:43:00,
2013-12-08 09:46:00,31.5,10.0,17.72,SSE,156,2.7,6.3,40,0.00,,---,0.00,VWS V14.00,2013-12-08 15:46:00,
2013-12-08 09:49:00,31.5,10.0,17.72,SSE,156,2.7,6.3,40,0.00,,---,0.00,VWS V14.00,2013-12-08 15:49:00,
2013-12-08 09:52:00,31.5,10.0,17.72,East,97,4.0,4.0,40,0.00,,---,0.00,VWS V14.00,2013-12-08 15:52:00,
2013-12-08 09:55:00,31.5,10.0,17.72,East,97,4.0,4.0,40,0.00,,---,0.00,VWS V14.00,2013-12-08 15:55:00,
2013-12-08 09:58:00,31.7,10.1,17.72,SSE,165,8.1,8.1,40,0.00,,---,0.00,VWS V14.00,2013-12-08 15:58:00,
2013-12-08 10:03:00,31.7,10.1,17.72,SSE,165,8.1,8.1,40,0.00,,---,0.00,VWS V14.00,2013-12-08 16:03:00,
2013-12-08 10:07:00,31.9,10.3,17.72,SSE,152,6.3,8.1,40,0.00,,---,0.00,VWS V14.00,2013-12-08 16:07:00,
2013-12-08 10:13:00,31.9,10.3,17.72,South,173,5.8,8.1,40,0.00,,---,0.00,VWS V14.00,2013-12-08 16:13:00,
2013-12-08 10:18:00,32.1,10.5,17.72,SE,140,3.6,8.1,40,0.00,,---,0.00,VWS V14.00,2013-12-08 16:18:00,
2013-12-08 10:19:00,32.1,10.5,17.72,SSE,159,5.4,5.4,40,0.00,,---,0.00,VWS V14.00,2013-12-08 16:19:00,
2013-12-08 10:22:00,32.1,10.5,17.72,SSE,159,5.4,5.4,40,0.00,,---,0.00,VWS V14.00,2013-12-08 16:22:00,
2013-12-08 10:28:00,32.2,10.6,17.72,SSE,157,3.1,5.4,40,0.00,,---,0.00,VWS V14.00,2013-12-08 16:28:00,
2013-12-08 10:31:00,32.2,10.6,17.72,SE,126,3.1,5.4,40,0.00,,---,0.00,VWS V14.00,2013-12-08 16:31:00,
2013-12-08 10:33:00,32.2,10.6,17.72,SE,126,3.1,5.4,40,0.00,,---,0.00,VWS V14.00,2013-12-08 16:33:00,
2013-12-08 10:37:00,32.2,10.6,17.72,South,183,3.1,3.1,40,0.00,,---,0.00,VWS V14.00,2013-12-08 16:37:00,
2013-12-08 10:40:00,32.4,10.8,17.72,SSE,157,3.1,3.1,40,0.00,,---,0.00,VWS V14.00,2013-12-08 16:40:00,
2013-12-08 10:43:00,32.4,10.8,17.72,SSE,157,4.0,4.0,40,0.00,,---,0.00,VWS V14.00,2013-12-08 16:43:00,
2013-12-08 10:46:00,32.4,10.8,17.72,SSE,157,0.0,4.0,40,0.00,,---,0.00,VWS V14.00,2013-12-08 16:46:00,
2013-12-08 10:48:00,32.4,10.8,17.72,SSE,157,0.0,4.0,40,0.00,,---,0.00,VWS V14.00,2013-12-08 16:48:00,
2013-12-08 10:55:00,32.8,11.1,17.72,SSE,165,2.7,2.7,40,0.00,,---,0.00,VWS V14.00,2013-12-08 16:55:00,
2013-12-08 11:01:00,33.0,11.3,17.72,South,171,3.1,4.0,40,0.00,,---,0.00,VWS V14.00,2013-12-08 17:01:00,
2013-12-08 11:03:00,33.1,11.4,17.72,South,171,3.1,4.0,40,0.00,,---,0.00,VWS V14.00,2013-12-08 17:03:00,
2013-12-08 11:04:00,33.1,11.4,17.72,SSE,161,2.7,3.1,40,0.00,,---,0.00,VWS V14.00,2013-12-08 17:04:00,
2013-12-08 11:10:00,33.1,11.4,17.72,SSE,161,2.7,3.1,40,0.00,,---,0.00,VWS V14.00,2013-12-08 17:10:00,
2013-12-08 11:13:00,33.1,11.4,17.72,SE,140,3.1,3.1,40,0.00,,---,0.00,VWS V14.00,2013-12-08 17:13:00,
2013-12-08 11:16:00,33.1,11.4,17.72,SSE,159,3.6,4.9,40,0.00,,---,0.00,VWS V14.00,2013-12-08 17:16:00,
2013-12-08 11:18:00,33.3,11.6,17.72,SSE,159,3.6,4.9,40,0.00,,---,0.00,VWS V14.00,2013-12-08 17:18:00,
2013-12-08 11:19:00,33.3,11.6,17.72,SSE,149,2.7,3.6,40,0.00,,---,0.00,VWS V14.00,2013-12-08 17:19:00,
2013-12-08 11:22:00,33.3,11.6,17.72,SSE,149,2.7,3.6,40,0.00,,---,0.00,VWS V14.00,2013-12-08 17:22:00,
2013-12-08 11:25:00,33.3,11.6,17.72,SSE,149,2.7,3.6,40,0.00,,---,0.00,VWS V14.00,2013-12-08 17:25:00,
2013-12-08 11:28:00,33.7,11.9,17.72,SSE,157,4.0,4.0,40,0.00,,---,0.00,VWS V14.00,2013-12-08 17:28:00,
2013-12-08 11:31:00,33.9,12.1,17.72,SSE,157,4.0,4.0,40,0.00,,---,0.00,VWS V14.00,2013-12-08 17:31:00,
2013-12-08 11:33:00,33.9,12.1,17.72,SE,145,4.0,4.0,40,0.00,,---,0.00,VWS V14.00,2013-12-08 17:33:00,
2013-12-08 11:34:00,33.9,12.1,17.72,SE,145,4.0,4.0,40,0.00,,---,0.00,VWS V14.00,2013-12-08 17:34:00,
2013-12-08 11:37:00,34.0,12.3,17.72,SE,145,4.0,4.0,40,0.00,,---,0.00,VWS V14.00,2013-12-08 17:37:00,
2013-12-08 11:40:00,34.0,12.3,17.72,SSE,166,3.6,5.4,40,0.00,,---,0.00,VWS V14.00,2013-12-08 17:40:00,
2013-12-08 11:43:00,34.2,12.4,17.72,SSE,166,3.6,5.4,40,0.00,,---,0.00,VWS V14.00,2013-12-08 17:43:00,
2013-12-08 11:46:00,34.4,12.6,17.72,SSE,164,5.8,5.8,40,0.00,,---,0.00,VWS V14.00,2013-12-08 17:46:00,
2013-12-08 11:48:00,34.4,12.6,17.72,SSE,164,5.8,5.8,40,0.00,,---,0.00,VWS V14.00,2013-12-08 17:48:00,
2013-12-08 11:55:00,34.8,12.9,17.72,South,173,4.0,5.8,40,0.00,,---,0.00,VWS V14.00,2013-12-08 17:55:00,
2013-12-08 11:59:00,34.8,12.9,17.72,South,170,3.6,5.8,40,0.00,,---,0.00,VWS V14.00,2013-12-08 17:59:00,
2013-12-08 12:02:00,34.8,12.9,17.72,South,170,3.6,5.8,40,0.00,,---,0.00,VWS V14.00,2013-12-08 18:02:00,
2013-12-08 12:05:00,34.9,13.1,17.72,South,170,3.6,3.6,40,0.00,,---,0.00,VWS V14.00,2013-12-08 18:05:00,
2013-12-08 12:11:00,34.9,13.1,17.72,South,170,3.6,3.6,40,0.00,,---,0.00,VWS V14.00,2013-12-08 18:11:00,
2013-12-08 12:14:00,34.9,13.1,17.72,SSE,153,2.7,3.6,40,0.00,,---,0.00,VWS V14.00,2013-12-08 18:14:00,
2013-12-08 12:17:00,35.1,13.2,17.72,SSE,153,2.7,3.6,40,0.00,,---,0.00,VWS V14.00,2013-12-08 18:17:00,
2013-12-08 12:18:00,35.1,13.2,17.72,SSE,153,2.7,3.6,40,0.00,,---,0.00,VWS V14.00,2013-12-08 18:18:00,
2013-12-08 12:20:00,35.1,13.2,17.72,SSE,158,3.1,3.1,40,0.00,,---,0.00,VWS V14.00,2013-12-08 18:20:00,
2013-12-08 12:23:00,35.1,13.2,17.72,SSE,158,3.1,3.1,40,0.00,,---,0.00,VWS V14.00,2013-12-08 18:23:00,
2013-12-08 12:26:00,35.1,13.2,17.72,SSE,168,3.1,3.1,40,0.00,,---,0.00,VWS V14.00,2013-12-08 18:26:00,
2013-12-08 12:29:00,35.3,13.4,17.72,SSE,168,2.7,3.1,40,0.00,,---,0.00,VWS V14.00,2013-12-08 18:29:00,
2013-12-08 12:32:00,35.3,13.4,17.72,South,183,3.1,3.1,40,0.00,,---,0.00,VWS V14.00,2013-12-08 18:32:00,
2013-12-08 12:33:00,35.3,13.4,17.72,South,183,3.1,3.1,40,0.00,,---,0.00,VWS V14.00,2013-12-08 18:33:00,
2013-12-08 12:35:00,35.5,13.6,17.72,South,183,3.1,3.1,40,0.00,,---,0.00,VWS V14.00,2013-12-08 18:35:00,
2013-12-08 12:38:00,35.5,13.6,17.72,South,183,3.1,3.1,40,0.00,,---,0.00,VWS V14.00,2013-12-08 18:38:00,
2013-12-08 12:41:00,35.5,13.6,17.72,SSE,160,4.0,4.0,40,0.00,,---,0.00,VWS V14.00,2013-12-08 18:41:00,
2013-12-08 12:44:00,35.5,13.6,17.72,SSE,160,4.0,4.0,40,0.00,,---,0.00,VWS V14.00,2013-12-08 18:44:00,
2013-12-08 12:47:00,35.5,13.6,17.72,SSW,208,3.1,4.0,40,0.00,,---,0.00,VWS V14.00,2013-12-08 18:47:00,
2013-12-08 12:48:00,35.5,13.6,17.72,SSW,208,3.1,4.0,40,0.00,,---,0.00,VWS V14.00,2013-12-08 18:48:00,
2013-12-08 12:50:00,35.5,13.6,17.72,SSW,208,3.1,3.1,40,0.00,,---,0.00,VWS V14.00,2013-12-08 18:50:00,
2013-12-08 12:53:00,35.5,13.6,17.72,SSW,208,3.1,3.1,40,0.00,,---,0.00,VWS V14.00,2013-12-08 18:53:00,
2013-12-08 12:59:00,35.7,13.7,17.72,SSE,160,2.7,3.6,40,0.00,,---,0.00,VWS V14.00,2013-12-08 18:59:00,
2013-12-08 13:02:00,35.7,13.7,17.72,SSE,167,2.7,3.6,40,0.00,,---,0.00,VWS V14.00,2013-12-08 19:02:00,
2013-12-08 13:04:00,35.8,13.9,17.72,SSE,167,2.7,3.6,40,0.00,,---,0.00,VWS V14.00,2013-12-08 19:04:00,
2013-12-08 13:08:00,35.8,13.9,17.72,SSE,167,0.0,2.7,40,0.00,,---,0.00,VWS V14.00,2013-12-08 19:08:00,
2013-12-08 13:11:00,35.8,13.9,17.72,SSE,167,0.0,2.7,40,0.00,,---,0.00,VWS V14.00,2013-12-08 19:11:00,
2013-12-08 13:14:00,35.8,13.9,17.72,SSE,167,0.0,2.7,40,0.00,,---,0.00,VWS V14.00,2013-12-08 19:14:00,
2013-12-08 13:17:00,35.8,13.9,17.72,SSE,167,0.0,2.7,40,0.00,,---,0.00,VWS V14.00,2013-12-08 19:17:00,
2013-12-08 13:23:00,35.8,13.9,17.72,SSE,167,2.2,2.2,40,0.00,,---,0.00,VWS V14.00,2013-12-08 19:23:00,
2013-12-08 13:26:00,36.0,14.1,17.72,South,174,2.7,2.7,40,0.00,,---,0.00,VWS V14.00,2013-12-08 19:26:00,
2013-12-08 13:29:00,36.0,14.1,17.72,South,174,2.7,2.7,40,0.00,,---,0.00,VWS V14.00,2013-12-08 19:29:00,
2013-12-08 13:32:00,36.0,14.1,17.72,South,174,2.7,2.7,40,0.00,,---,0.00,VWS V14.00,2013-12-08 19:32:00,
2013-12-08 13:33:00,36.0,14.1,17.72,SE,144,2.7,2.7,40,0.00,,---,0.00,VWS V14.00,2013-12-08 19:33:00,
2013-12-08 13:35:00,36.2,14.2,17.72,SE,136,4.0,4.0,40,0.00,,---,0.00,VWS V14.00,2013-12-08 19:35:00,
2013-12-08 13:41:00,36.2,14.2,17.72,SE,136,4.0,4.0,40,0.00,,---,0.00,VWS V14.00,2013-12-08 19:41:00,
2013-12-08 13:44:00,36.2,14.2,17.72,SE,136,4.0,4.0,40,0.00,,---,0.00,VWS V14.00,2013-12-08 19:44:00,
2013-12-08 13:47:00,36.2,14.2,17.72,SSE,147,3.6,4.0,40,0.00,,---,0.00,VWS V14.00,2013-12-08 19:47:00,
2013-12-08 13:50:00,36.2,14.2,17.72,SSE,147,3.6,3.6,40,0.00,,---,0.00,VWS V14.00,2013-12-08 19:50:00,
2013-12-08 13:53:00,36.4,14.4,17.72,SSE,147,3.6,3.6,40,0.00,,---,0.00,VWS V14.00,2013-12-08 19:53:00,
2013-12-08 13:56:00,36.4,14.4,17.72,SSE,147,4.9,4.9,40,0.00,,---,0.00,VWS V14.00,2013-12-08 19:56:00,
2013-12-08 13:59:00,36.4,14.4,17.72,SSE,167,0.0,4.9,40,0.00,,---,0.00,VWS V14.00,2013-12-08 19:59:00,
2013-12-08 14:03:00,36.6,14.5,17.72,SSE,158,3.6,4.9,40,0.00,,---,0.00,VWS V14.00,2013-12-08 20:03:00,
2013-12-08 14:05:00,36.6,14.5,17.72,SSE,158,3.6,3.6,40,0.00,,---,0.00,VWS V14.00,2013-12-08 20:05:00,
2013-12-08 14:08:00,36.6,14.5,17.72,SSE,151,3.6,3.6,40,0.00,,---,0.00,VWS V14.00,2013-12-08 20:08:00,
2013-12-08 14:11:00,36.6,14.5,17.72,South,177,3.6,3.6,40,0.00,,---,0.00,VWS V14.00,2013-12-08 20:11:00,
2013-12-08 14:17:00,36.7,14.7,17.72,SE,124,0.0,3.6,40,0.00,,---,0.00,VWS V14.00,2013-12-08 20:17:00,
2013-12-08 14:18:00,36.7,14.7,17.72,SE,124,0.0,3.6,40,0.00,,---,0.00,VWS V14.00,2013-12-08 20:18:00,
2013-12-08 14:20:00,36.7,14.7,17.72,SE,124,0.0,0.0,40,0.00,,---,0.00,VWS V14.00,2013-12-08 20:20:00,
2013-12-08 14:26:00,36.9,14.9,17.72,SE,124,0.0,0.0,40,0.00,,---,0.00,VWS V14.00,2013-12-08 20:26:00,
2013-12-08 14:29:00,36.9,14.9,17.72,SE,124,0.0,0.0,40,0.00,,---,0.00,VWS V14.00,2013-12-08 20:29:00,
2013-12-08 14:32:00,36.9,14.9,17.72,SE,124,0.0,0.0,40,0.00,,---,0.00,VWS V14.00,2013-12-08 20:32:00,
2013-12-08 14:33:00,36.9,14.9,17.72,SE,124,0.0,0.0,40,0.00,,---,0.00,VWS V14.00,2013-12-08 20:33:00,
2013-12-08 14:35:00,37.1,15.0,17.72,SE,124,0.0,0.0,40,0.00,,---,0.00,VWS V14.00,2013-12-08 20:35:00,
2013-12-08 14:38:00,37.1,15.0,17.72,SE,124,0.0,0.0,40,0.00,,---,0.00,VWS V14.00,2013-12-08 20:38:00,
2013-12-08 14:41:00,37.1,15.0,17.72,SE,124,0.0,0.0,40,0.00,,---,0.00,VWS V14.00,2013-12-08 20:41:00,
2013-12-08 14:44:00,37.1,15.0,17.72,SE,124,0.0,0.0,40,0.00,,---,0.00,VWS V14.00,2013-12-08 20:44:00,
2013-12-08 14:50:00,37.3,15.2,17.72,SE,124,0.0,0.0,40,0.00,,---,0.00,VWS V14.00,2013-12-08 20:50:00,
2013-12-08 14:56:00,37.3,15.2,17.72,SE,124,0.0,0.0,40,0.00,,---,0.00,VWS V14.00,2013-12-08 20:56:00,
2013-12-08 14:59:00,37.5,15.4,17.72,SE,124,0.0,0.0,40,0.00,,---,0.00,VWS V14.00,2013-12-08 20:59:00,
2013-12-08 15:02:00,37.5,15.4,17.72,SE,124,0.0,0.0,40,0.00,,---,0.00,VWS V14.00,2013-12-08 21:02:00,
2013-12-08 15:03:00,37.5,15.4,17.72,SE,124,0.0,0.0,40,0.00,,---,0.00,VWS V14.00,2013-12-08 21:03:00,
2013-12-08 15:05:00,37.5,15.4,17.72,SE,124,0.0,0.0,40,0.00,,---,0.00,VWS V14.00,2013-12-08 21:05:00,
2013-12-08 15:08:00,37.5,15.4,17.72,SE,124,0.0,0.0,40,0.00,,---,0.00,VWS V14.00,2013-12-08 21:08:00,
2013-12-08 15:14:00,37.5,15.4,17.72,SE,124,0.0,0.0,40,0.00,,---,0.00,VWS V14.00,2013-12-08 21:14:00,
2013-12-08 15:17:00,37.6,15.5,17.72,SE,124,0.0,0.0,40,0.00,,---,0.00,VWS V14.00,2013-12-08 21:17:00,
2013-12-08 15:18:00,37.6,15.5,17.72,SE,124,0.0,0.0,40,0.00,,---,0.00,VWS V14.00,2013-12-08 21:18:00,
2013-12-08 15:23:00,37.6,15.5,17.72,SE,124,0.0,0.0,40,0.00,,---,0.00,VWS V14.00,2013-12-08 21:23:00,
2013-12-08 15:30:00,37.6,15.5,17.72,SE,124,0.0,0.0,40,0.00,,---,0.00,VWS V14.00,2013-12-08 21:30:00,
2013-12-08 15:33:00,37.6,15.5,17.72,South,171,2.7,2.7,40,0.00,,---,0.00,VWS V14.00,2013-12-08 21:33:00,
2013-12-08 15:39:00,37.6,15.5,17.72,South,181,3.1,3.6,40,0.00,,---,0.00,VWS V14.00,2013-12-08 21:39:00,
2013-12-08 15:42:00,37.6,15.5,17.72,South,181,3.1,3.6,40,0.00,,---,0.00,VWS V14.00,2013-12-08 21:42:00,
2013-12-08 15:45:00,37.6,15.5,17.72,SSE,147,3.1,3.6,40,0.00,,---,0.00,VWS V14.00,2013-12-08 21:45:00,
2013-12-08 15:48:00,37.6,15.5,17.72,SSE,147,3.1,3.6,40,0.00,,---,0.00,VWS V14.00,2013-12-08 21:48:00,
2013-12-08 15:51:00,37.5,15.4,17.72,SSE,147,3.1,3.1,40,0.00,,---,0.00,VWS V14.00,2013-12-08 21:51:00,
2013-12-08 15:57:00,37.5,15.4,17.72,South,170,2.7,3.1,40,0.00,,---,0.00,VWS V14.00,2013-12-08 21:57:00,
2013-12-08 16:00:00,37.5,15.4,17.72,SSE,165,3.1,3.1,40,0.00,,---,0.00,VWS V14.00,2013-12-08 22:00:00,
2013-12-08 16:03:00,37.5,15.4,17.72,SSE,162,3.6,4.0,40,0.00,,---,0.00,VWS V14.00,2013-12-08 22:03:00,
2013-12-08 16:06:00,37.3,15.2,17.72,South,191,4.0,4.0,40,0.00,,---,0.00,VWS V14.00,2013-12-08 22:06:00,
2013-12-08 16:12:00,37.3,15.2,17.72,SSE,155,4.9,4.9,40,0.00,,---,0.00,VWS V14.00,2013-12-08 22:12:00,
2013-12-08 16:15:00,36.9,14.9,17.72,South,180,0.0,4.9,40,0.00,,---,0.00,VWS V14.00,2013-12-08 22:15:00,
2013-12-08 16:18:00,36.9,14.9,17.72,SSE,153,3.6,4.9,40,0.00,,---,0.00,VWS V14.00,2013-12-08 22:18:00,
2013-12-08 16:24:00,36.7,14.7,17.72,South,179,0.0,3.6,40,0.00,,---,0.00,VWS V14.00,2013-12-08 22:24:00,
2013-12-08 16:27:00,36.7,14.7,17.72,South,179,0.0,3.6,40,0.00,,---,0.00,VWS V14.00,2013-12-08 22:27:00,
2013-12-08 16:30:00,36.7,14.7,17.72,South,181,0.0,3.6,40,0.00,,---,0.00,VWS V14.00,2013-12-08 22:30:00,
2013-12-08 16:33:00,36.6,14.5,17.72,South,181,0.0,3.6,40,0.00,,---,0.00,VWS V14.00,2013-12-08 22:33:00,
2013-12-08 16:39:00,36.6,14.5,17.72,South,181,0.0,0.0,40,0.00,,---,0.00,VWS V14.00,2013-12-08 22:39:00,
2013-12-08 16:42:00,36.4,14.4,17.72,South,181,0.0,0.0,40,0.00,,---,0.00,VWS V14.00,2013-12-08 22:42:00,
2013-12-08 16:45:00,36.4,14.4,17.72,SSE,157,2.7,4.9,40,0.00,,---,0.00,VWS V14.00,2013-12-08 22:45:00,
2013-12-08 16:48:00,36.4,14.4,17.72,South,174,5.4,5.4,40,0.00,,---,0.00,VWS V14.00,2013-12-08 22:48:00,
2013-12-08 16:51:00,36.4,14.4,17.72,South,174,5.4,5.4,40,0.00,,---,0.00,VWS V14.00,2013-12-08 22:51:00,
2013-12-08 16:54:00,36.4,14.4,17.72,South,174,5.4,5.4,40,0.00,,---,0.00,VWS V14.00,2013-12-08 22:54:00,
2013-12-08 16:57:00,36.2,14.2,17.72,South,174,5.4,5.4,40,0.00,,---,0.00,VWS V14.00,2013-12-08 22:57:00,
2013-12-08 17:00:00,36.2,14.2,17.72,South,174,5.4,5.4,40,0.00,,---,0.00,VWS V14.00,2013-12-08 23:00:00,
2013-12-08 17:03:00,36.2,14.2,17.72,South,174,5.4,5.4,40,0.00,,---,0.00,VWS V14.00,2013-12-08 23:03:00,
2013-12-08 17:06:00,36.0,14.6,17.72,SSE,155,3.6,5.4,41,0.00,,---,0.00,VWS V14.00,2013-12-08 23:06:00,
2013-12-08 17:09:00,36.0,14.6,17.72,SSE,155,3.6,5.4,41,0.00,,---,0.00,VWS V14.00,2013-12-08 23:09:00,
2013-12-08 17:12:00,35.8,14.4,17.72,SSE,155,3.6,5.4,41,0.00,,---,0.00,VWS V14.00,2013-12-08 23:12:00,
2013-12-08 17:15:00,35.8,14.4,17.72,SSE,155,3.6,5.4,41,0.00,,---,0.00,VWS V14.00,2013-12-08 23:15:00,
2013-12-08 17:18:00,35.8,14.4,17.72,SSE,161,4.9,5.4,41,0.00,,---,0.00,VWS V14.00,2013-12-08 23:18:00,
2013-12-08 17:24:00,35.7,14.3,17.72,South,176,3.1,3.1,41,0.00,,---,0.00,VWS V14.00,2013-12-08 23:24:00,
2013-12-08 17:30:00,35.5,14.1,17.72,SE,128,2.7,4.0,41,0.00,,---,0.00,VWS V14.00,2013-12-08 23:30:00,
2013-12-08 17:33:00,35.5,14.1,17.72,SE,128,2.7,4.0,41,0.00,,---,0.00,VWS V14.00,2013-12-08 23:33:00,
2013-12-08 17:36:00,35.5,14.1,17.72,SE,128,2.7,2.7,41,0.00,,---,0.00,VWS V14.00,2013-12-08 23:36:00,
2013-12-08 17:39:00,35.3,14.0,17.72,SSE,154,3.1,3.1,41,0.00,,---,0.00,VWS V14.00,2013-12-08 23:39:00,
2013-12-08 17:42:00,35.1,13.8,17.72,SE,143,2.2,3.1,41,0.00,,---,0.00,VWS V14.00,2013-12-08 23:42:00,
2013-12-08 17:45:00,35.1,13.8,17.72,SSE,161,0.0,3.1,41,0.00,,---,0.00,VWS V14.00,2013-12-08 23:45:00,
2013-12-08 17:48:00,35.1,13.8,17.72,SSE,161,0.0,3.1,41,0.00,,---,0.00,VWS V14.00,2013-12-08 23:48:00,
2013-12-08 17:51:00,35.1,13.8,17.72,SSE,151,4.5,4.5,41,0.00,,---,0.00,VWS V14.00,2013-12-08 23:51:00,
2013-12-08 17:54:00,35.1,13.8,17.72,SSE,150,4.0,4.5,41,0.00,,---,0.00,VWS V14.00,2013-12-08 23:54:00,
2013-12-08 17:57:00,35.1,13.8,17.72,SE,141,4.9,4.9,41,0.00,,---,0.00,VWS V14.00,2013-12-08 23:57:00,
2013-12-08 18:03:00,34.9,13.6,17.72,SE,141,4.9,4.9,41,0.00,,---,0.00,VWS V14.00,2013-12-09 00:03:00,
2013-12-08 18:09:00,34.9,14.2,17.72,SSE,158,5.4,5.4,42,0.00,,---,0.00,VWS V14.00,2013-12-09 00:09:00,
2013-12-08 18:12:00,34.9,14.2,17.72,SE,137,2.7,5.4,42,0.00,,---,0.00,VWS V14.00,2013-12-09 00:12:00,
2013-12-08 18:15:00,34.9,14.2,17.72,SSE,148,4.9,5.4,42,0.00,,---,0.00,VWS V14.00,2013-12-09 00:15:00,
2013-12-08 18:18:00,34.9,14.2,17.72,SSE,149,3.1,5.4,42,0.00,,---,0.00,VWS V14.00,2013-12-09 00:18:00,
2013-12-08 18:21:00,34.9,14.2,17.72,SSE,149,3.1,3.1,42,0.00,,---,0.00,VWS V14.00,2013-12-09 00:21:00,
2013-12-08 18:24:00,34.9,14.2,17.72,SSE,152,4.9,4.9,42,0.00,,---,0.00,VWS V14.00,2013-12-09 00:24:00,
2013-12-08 18:27:00,34.9,14.2,17.72,SSE,152,4.9,4.9,42,0.00,,---,0.00,VWS V14.00,2013-12-09 00:27:00,
2013-12-08 18:30:00,34.9,14.2,17.72,SSE,152,4.9,4.9,42,0.00,,---,0.00,VWS V14.00,2013-12-09 00:30:00,
2013-12-08 18:33:00,34.8,14.0,17.72,SSE,152,4.9,4.9,42,0.00,,---,0.00,VWS V14.00,2013-12-09 00:33:00,
2013-12-08 18:36:00,34.8,14.0,17.72,SSE,152,4.9,4.9,42,0.00,,---,0.00,VWS V14.00,2013-12-09 00:36:00,
2013-12-08 18:39:00,34.6,13.9,17.72,SSE,152,4.9,4.9,42,0.00,,---,0.00,VWS V14.00,2013-12-09 00:39:00,
2013-12-08 18:42:00,34.6,13.9,17.72,SSE,152,4.9,4.9,42,0.00,,---,0.00,VWS V14.00,2013-12-09 00:42:00,
2013-12-08 18:45:00,34.6,13.9,17.72,SSE,152,4.9,4.9,42,0.00,,---,0.00,VWS V14.00,2013-12-09 00:45:00,
2013-12-08 18:48:00,34.6,14.4,17.72,SSE,152,4.9,4.9,43,0.00,,---,0.00,VWS V14.00,2013-12-09 00:48:00,
2013-12-08 18:49:00,34.6,14.4,17.72,SSE,152,4.9,4.9,43,0.00,,---,0.00,VWS V14.00,2013-12-09 00:49:00,
2013-12-08 18:52:00,34.6,14.4,17.72,South,171,0.0,4.9,43,0.00,,---,0.00,VWS V14.00,2013-12-09 00:52:00,
2013-12-08 18:55:00,34.6,14.4,17.72,South,171,0.0,4.9,43,0.00,,---,0.00,VWS V14.00,2013-12-09 00:55:00,
2013-12-08 18:58:00,34.4,14.2,17.72,South,171,0.0,4.9,43,0.00,,---,0.00,VWS V14.00,2013-12-09 00:58:00,
2013-12-08 19:01:00,34.4,14.2,17.72,South,171,0.0,4.9,43,0.00,,---,0.00,VWS V14.00,2013-12-09 01:01:00,
2013-12-08 19:03:00,34.4,14.2,17.72,South,171,0.0,4.9,43,0.00,,---,0.00,VWS V14.00,2013-12-09 01:03:00,
2013-12-08 19:04:00,34.4,14.2,17.72,South,171,0.0,0.0,43,0.00,,---,0.00,VWS V14.00,2013-12-09 01:04:00,
2013-12-08 19:07:00,34.4,14.2,17.72,South,170,0.0,0.0,43,0.00,,---,0.00,VWS V14.00,2013-12-09 01:07:00,
2013-12-08 19:10:00,34.4,14.2,17.72,South,170,0.0,0.0,43,0.00,,---,0.00,VWS V14.00,2013-12-09 01:10:00,
2013-12-08 19:13:00,34.6,14.4,17.72,South,171,0.0,0.0,43,0.00,,---,0.00,VWS V14.00,2013-12-09 01:13:00,
2013-12-08 19:16:00,34.6,14.4,17.72,South,171,0.0,0.0,43,0.00,,---,0.00,VWS V14.00,2013-12-09 01:16:00,
2013-12-08 19:18:00,34.6,14.4,17.72,South,171,0.0,0.0,43,0.00,,---,0.00,VWS V14.00,2013-12-09 01:18:00,
2013-12-08 19:19:00,34.6,14.4,17.72,South,171,0.0,0.0,43,0.00,,---,0.00,VWS V14.00,2013-12-09 01:19:00,
2013-12-08 19:22:00,34.6,14.4,17.72,South,171,0.0,0.0,43,0.00,,---,0.00,VWS V14.00,2013-12-09 01:22:00,
2013-12-08 19:25:00,34.6,14.4,17.72,South,171,0.0,0.0,43,0.00,,---,0.00,VWS V14.00,2013-12-09 01:25:00,
2013-12-08 19:28:00,34.8,14.6,17.72,South,171,0.0,0.0,43,0.00,,---,0.00,VWS V14.00,2013-12-09 01:28:00,
2013-12-08 19:33:00,34.8,14.6,17.72,South,171,0.0,0.0,43,0.00,,---,0.00,VWS V14.00,2013-12-09 01:33:00,
2013-12-08 19:34:00,34.8,14.6,17.72,South,171,0.0,0.0,43,0.00,,---,0.00,VWS V14.00,2013-12-09 01:34:00,
2013-12-08 19:40:00,34.9,14.7,17.72,South,171,0.0,0.0,43,0.00,,---,0.00,VWS V14.00,2013-12-09 01:40:00,
2013-12-08 19:43:00,34.9,14.7,17.72,South,171,0.0,0.0,43,0.00,,---,0.00,VWS V14.00,2013-12-09 01:43:00,
2013-12-08 19:46:00,34.9,14.7,17.72,South,171,0.0,0.0,43,0.00,,---,0.00,VWS V14.00,2013-12-09 01:46:00,
2013-12-08 19:49:00,34.9,14.7,17.72,South,171,0.0,0.0,43,0.00,,---,0.00,VWS V14.00,2013-12-09 01:49:00,
2013-12-08 19:52:00,34.9,14.7,17.72,South,171,0.0,0.0,43,0.00,,---,0.00,VWS V14.00,2013-12-09 01:52:00,
2013-12-08 19:58:00,34.9,14.7,17.72,South,171,0.0,0.0,43,0.00,,---,0.00,VWS V14.00,2013-12-09 01:58:00,
2013-12-08 20:01:00,34.9,14.7,17.72,South,171,0.0,0.0,43,0.00,,---,0.00,VWS V14.00,2013-12-09 02:01:00,
2013-12-08 20:03:00,34.9,14.7,17.72,South,171,0.0,0.0,43,0.00,,---,0.00,VWS V14.00,2013-12-09 02:03:00,
2013-12-08 20:07:00,34.9,14.7,17.72,South,171,0.0,0.0,43,0.00,,---,0.00,VWS V14.00,2013-12-09 02:07:00,
2013-12-08 20:10:00,34.9,14.7,17.72,South,171,0.0,0.0,43,0.00,,---,0.00,VWS V14.00,2013-12-09 02:10:00,
2013-12-08 20:13:00,34.9,14.7,17.72,South,171,0.0,0.0,43,0.00,,---,0.00,VWS V14.00,2013-12-09 02:13:00,
2013-12-08 20:16:00,34.9,14.7,17.72,South,171,0.0,0.0,43,0.00,,---,0.00,VWS V14.00,2013-12-09 02:16:00,
2013-12-08 20:18:00,34.9,14.7,17.72,South,171,0.0,0.0,43,0.00,,---,0.00,VWS V14.00,2013-12-09 02:18:00,
2013-12-08 20:22:00,35.1,14.9,17.72,South,171,0.0,0.0,43,0.00,,---,0.00,VWS V14.00,2013-12-09 02:22:00,
2013-12-08 20:28:00,35.1,14.9,17.72,South,171,0.0,0.0,43,0.00,,---,0.00,VWS V14.00,2013-12-09 02:28:00,
2013-12-08 20:31:00,35.1,14.9,17.72,South,171,0.0,0.0,43,0.00,,---,0.00,VWS V14.00,2013-12-09 02:31:00,
2013-12-08 20:33:00,35.1,14.4,17.72,South,171,0.0,0.0,42,0.00,,---,0.00,VWS V14.00,2013-12-09 02:33:00,
2013-12-08 20:37:00,35.1,14.4,17.72,South,171,0.0,0.0,42,0.00,,---,0.00,VWS V14.00,2013-12-09 02:37:00,
2013-12-08 20:43:00,35.1,14.4,17.72,South,171,0.0,0.0,42,0.00,,---,0.00,VWS V14.00,2013-12-09 02:43:00,
2013-12-08 20:46:00,35.3,14.5,17.72,South,171,0.0,0.0,42,0.00,,---,0.00,VWS V14.00,2013-12-09 02:46:00,
2013-12-08 20:48:00,35.3,14.5,17.72,South,171,0.0,0.0,42,0.00,,---,0.00,VWS V14.00,2013-12-09 02:48:00,
2013-12-08 20:49:00,35.3,14.5,17.72,South,171,0.0,0.0,42,0.00,,---,0.00,VWS V14.00,2013-12-09 02:49:00,
2013-12-08 20:55:00,35.3,14.5,17.72,South,171,0.0,0.0,42,0.00,,---,0.00,VWS V14.00,2013-12-09 02:55:00,
2013-12-08 20:58:00,35.3,14.5,17.72,South,170,0.0,0.0,42,0.00,,---,0.00,VWS V14.00,2013-12-09 02:58:00,
2013-12-08 21:03:00,35.5,14.7,17.72,South,171,0.0,0.0,42,0.00,,---,0.00,VWS V14.00,2013-12-09 03:03:00,
2013-12-08 21:07:00,35.5,14.7,17.72,South,171,0.0,0.0,42,0.00,,---,0.00,VWS V14.00,2013-12-09 03:07:00,
2013-12-08 21:10:00,35.5,14.7,17.72,South,171,0.0,0.0,42,0.00,,---,0.00,VWS V14.00,2013-12-09 03:10:00,
2013-12-08 21:13:00,35.5,14.7,17.72,South,171,0.0,0.0,42,0.00,,---,0.00,VWS V14.00,2013-12-09 03:13:00,
2013-12-08 21:16:00,35.5,14.7,17.72,South,171,0.0,0.0,42,0.00,,---,0.00,VWS V14.00,2013-12-09 03:16:00,
2013-12-08 21:18:00,35.5,14.7,17.72,South,171,0.0,0.0,42,0.00,,---,0.00,VWS V14.00,2013-12-09 03:18:00,
2013-12-08 21:19:00,35.5,14.7,17.72,South,171,0.0,0.0,42,0.00,,---,0.00,VWS V14.00,2013-12-09 03:19:00,
2013-12-08 21:22:00,35.5,14.7,17.72,South,171,0.0,0.0,42,0.00,,---,0.00,VWS V14.00,2013-12-09 03:22:00,
2013-12-08 21:25:00,35.5,14.7,17.72,South,171,0.0,0.0,42,0.00,,---,0.00,VWS V14.00,2013-12-09 03:25:00,
2013-12-08 21:28:00,35.5,14.7,17.72,South,171,0.0,0.0,42,0.00,,---,0.00,VWS V14.00,2013-12-09 03:28:00,
2013-12-08 21:33:00,35.5,14.7,17.72,South,171,0.0,0.0,42,0.00,,---,0.00,VWS V14.00,2013-12-09 03:33:00,
2013-12-08 21:37:00,35.5,14.7,17.72,South,171,0.0,0.0,42,0.00,,---,0.00,VWS V14.00,2013-12-09 03:37:00,
2013-12-08 21:43:00,35.5,14.7,17.72,South,171,0.0,0.0,42,0.00,,---,0.00,VWS V14.00,2013-12-09 03:43:00,
2013-12-08 21:47:00,35.5,14.7,17.72,SSW,204,0.0,0.0,42,0.00,,---,0.00,VWS V14.00,2013-12-09 03:47:00,
2013-12-08 21:49:00,35.5,14.7,17.72,SSW,204,0.0,0.0,42,0.00,,---,0.00,VWS V14.00,2013-12-09 03:49:00,
2013-12-08 21:50:00,35.5,14.7,17.72,SSW,204,0.0,0.0,42,0.00,,---,0.00,VWS V14.00,2013-12-09 03:50:00,
2013-12-08 21:53:00,35.5,14.7,17.72,SSW,204,0.0,0.0,42,0.00,,---,0.00,VWS V14.00,2013-12-09 03:53:00,
2013-12-08 21:56:00,35.5,14.7,17.72,SSW,204,0.0,0.0,42,0.00,,---,0.00,VWS V14.00,2013-12-09 03:56:00,
2013-12-08 21:59:00,35.5,14.7,17.72,SW,218,0.0,0.0,42,0.00,,---,0.00,VWS V14.00,2013-12-09 03:59:00,
2013-12-08 22:02:00,35.5,14.7,17.72,SW,219,0.0,0.0,42,0.00,,---,0.00,VWS V14.00,2013-12-09 04:02:00,
2013-12-08 22:03:00,35.5,14.7,17.72,SW,225,0.0,0.0,42,0.00,,---,0.00,VWS V14.00,2013-12-09 04:03:00,
2013-12-08 22:05:00,35.5,14.7,17.72,SW,225,0.0,0.0,42,0.00,,---,0.00,VWS V14.00,2013-12-09 04:05:00,
2013-12-08 22:11:00,35.5,14.7,17.72,SW,225,0.0,0.0,42,0.00,,---,0.00,VWS V14.00,2013-12-09 04:11:00,
2013-12-08 22:14:00,35.5,14.7,17.72,SW,225,0.0,0.0,42,0.00,,---,0.00,VWS V14.00,2013-12-09 04:14:00,
2013-12-08 22:17:00,35.5,14.7,17.72,SW,225,0.0,0.0,42,0.00,,---,0.00,VWS V14.00,2013-12-09 04:17:00,
2013-12-08 22:23:00,35.5,14.7,17.72,SSW,206,0.0,0.0,42,0.00,,---,0.00,VWS V14.00,2013-12-09 04:23:00,
2013-12-08 22:26:00,35.5,14.7,17.72,SSW,206,0.0,0.0,42,0.00,,---,0.00,VWS V14.00,2013-12-09 04:26:00,
2013-12-08 22:29:00,35.5,14.7,17.72,South,189,0.0,0.0,42,0.00,,---,0.00,VWS V14.00,2013-12-09 04:29:00,
2013-12-08 22:32:00,35.5,14.7,17.72,NE,50,0.0,0.0,42,0.00,,---,0.00,VWS V14.00,2013-12-09 04:32:00,
2013-12-08 22:33:00,35.5,14.7,17.72,WSW,240,0.0,0.0,42,0.00,,---,0.00,VWS V14.00,2013-12-09 04:33:00,
2013-12-08 22:41:00,35.8,15.0,17.72,NW,313,0.0,0.0,42,0.00,,---,0.00,VWS V14.00,2013-12-09 04:41:00,
2013-12-08 22:44:00,35.8,15.0,17.72,NW,313,0.0,0.0,42,0.00,,---,0.00,VWS V14.00,2013-12-09 04:44:00,
2013-12-08 22:47:00,35.8,15.0,17.72,NW,313,0.0,0.0,42,0.00,,---,0.00,VWS V14.00,2013-12-09 04:47:00,
2013-12-08 22:48:00,35.8,15.0,17.72,NW,313,0.0,0.0,42,0.00,,---,0.00,VWS V14.00,2013-12-09 04:48:00,
2013-12-08 22:50:00,35.8,15.0,17.72,NW,313,0.0,0.0,42,0.00,,---,0.00,VWS V14.00,2013-12-09 04:50:00,
2013-12-08 22:56:00,35.8,15.0,17.72,South,184,3.1,3.1,42,0.00,,---,0.00,VWS V14.00,2013-12-09 04:56:00,
2013-12-08 22:59:00,35.8,15.0,17.72,South,184,3.1,3.1,42,0.00,,---,0.00,VWS V14.00,2013-12-09 04:59:00,
2013-12-08 23:02:00,35.8,15.0,17.72,South,184,0.0,3.1,42,0.00,,---,0.00,VWS V14.00,2013-12-09 05:02:00,
2013-12-08 23:03:00,35.8,15.0,17.72,South,184,0.0,3.1,42,0.00,,---,0.00,VWS V14.00,2013-12-09 05:03:00,
2013-12-08 23:05:00,35.8,15.0,17.72,South,184,0.0,0.0,42,0.00,,---,0.00,VWS V14.00,2013-12-09 05:05:00,
2013-12-08 23:08:00,35.8,15.0,17.72,NW,311,0.0,0.0,42,0.00,,---,0.00,VWS V14.00,2013-12-09 05:08:00,
2013-12-08 23:11:00,35.8,15.0,17.72,SW,220,0.0,0.0,42,0.00,,---,0.00,VWS V14.00,2013-12-09 05:11:00,
2013-12-08 23:14:00,35.8,15.0,17.72,SW,220,0.0,0.0,42,0.00,,---,0.00,VWS V14.00,2013-12-09 05:14:00,
2013-12-08 23:17:00,35.8,15.0,17.72,SSW,195,0.0,0.0,42,0.00,,---,0.00,VWS V14.00,2013-12-09 05:17:00,
2013-12-08 23:18:00,35.8,15.0,17.72,SSW,195,0.0,0.0,42,0.00,,---,0.00,VWS V14.00,2013-12-09 05:18:00,
2013-12-08 23:20:00,35.8,15.0,17.72,NE,44,0.0,0.0,42,0.00,,---,0.00,VWS V14.00,2013-12-09 05:20:00,
2013-12-08 23:23:00,35.8,15.0,17.72,WSW,246,0.0,0.0,42,0.00,,---,0.00,VWS V14.00,2013-12-09 05:23:00,
2013-12-08 23:26:00,36.0,15.2,17.72,WSW,246,0.0,0.0,42,0.00,,---,0.00,VWS V14.00,2013-12-09 05:26:00,
2013-12-08 23:32:00,36.0,15.2,17.72,South,184,0.0,3.1,42,0.00,,---,0.00,VWS V14.00,2013-12-09 05:32:00,
2013-12-08 23:33:00,36.0,15.2,17.72,South,184,0.0,3.1,42,0.00,,---,0.00,VWS V14.00,2013-12-09 05:33:00,
2013-12-08 23:35:00,36.0,15.2,17.72,South,189,0.0,0.0,42,0.00,,---,0.00,VWS V14.00,2013-12-09 05:35:00,
2013-12-08 23:38:00,36.0,15.2,17.72,South,189,0.0,0.0,42,0.00,,---,0.00,VWS V14.00,2013-12-09 05:38:00,
2013-12-08 23:41:00,36.0,15.2,17.72,NNE,14,0.0,0.0,42,0.00,,---,0.00,VWS V14.00,2013-12-09 05:41:00,
2013-12-08 23:44:00,36.0,15.2,17.72,SW,215,2.2,2.2,42,0.00,,---,0.00,VWS V14.00,2013-12-09 05:44:00,
2013-12-08 23:48:00,36.2,15.3,17.72,SW,215,2.2,2.2,42,0.00,,---,0.00,VWS V14.00,2013-12-09 05:48:00,
2013-12-08 23:50:00,36.2,15.3,17.72,SSW,203,0.0,2.2,42,0.00,,---,0.00,VWS V14.00,2013-12-09 05:50:00,
2013-12-08 23:53:00,36.2,15.3,17.72,SSW,203,0.0,2.2,42,0.00,,---,0.00,VWS V14.00,2013-12-09 05:53:00,
2013-12-08 23:56:00,36.2,15.3,17.72,SSW,193,3.6,3.6,42,0.00,,---,0.00,VWS V14.00,2013-12-09 05:56:00,
2013-12-08 23:59:00,36.2,15.3,17.72,SSW,193,3.6,3.6,42,0.00,,---,0.00,VWS V14.00,2013-12-09 05:59:00,